CZ-6A DEB, 61082

Orbit data source: Space-Track

CZ-6A DEB, 61082 is space debris in LEO originally from a launch on Tue, 06 Aug 2024 UTC launched from the Taiyaun Space Center, China (TSC). Debris objects in space refer to the collection of defunct objects orbiting the Earth. Examples of debris include non-operational satellites, rocket bodies, and fragments generated from explosions, collisions, or faulty payload assembly.

Loading next visibility...
Identifier
61082, 2024-140MY
Orbit
LEO
Country
Flag of CNCN / PRC
Related business
Manufacturer
SAST
Mission
Spacecraft
Bus & Motor
Unknown
Mass
Unknown
Launch date (UTC)
2024-08-06 (2 years ago)
Launch vehicle
Unknown
Launch site
Taiyaun Space Center, China (TSC)
Object type
Payload
Rocket body
Debris
Shape & HBR
Unknown shape, 0.1 m
Radar Cross Section
Medium (>0.1 m² and <1 m²)

Expand to show TLE details & history
Last TLE update: 13 hours ago

TLE from 13 hours ago
0 CZ-6A DEB
1 61082U 24140MY  26171.31613744  .00000092  00000-0  51539-4 0  9992
2 61082  88.9732 274.9590 0144653 246.2033 112.3922 13.97553519 92677
Epoch: 2026-06-20T07:35Z
TLE epoch observation values (Epoch: 2026-06-20T07:35:14.274Z)
Latitude
-0.00004°
Longitude
-107.38299°
Altitude
946.719 km
Speed
7.357 km/s
True Right ascension
18h 19m 50s
True Declination
0° 00' 00"
Sunlit
Object was in full shadow at epoch
Visualization orbit readout
Latitude
Unknown
Longitude
Unknown
Altitude
Unknown
Speed
Unknown
Apparent Right ascension
Unknown
Apparent Declination
Unknown
Sunlit
N/A
Visualization observer readout
Local Sidereal Time
07:17:05
Azimuth
Unknown
Elevation
Unknown
Doppler factor
Unknown
Orbital elements
Apogee altitude
1,004.532 km
Perigee altitude
793.992 km
Semi-major axis
7,277.399 km
Eccentricity
0.01447
Inclination
88.9732°
RAAN
274.959°
Arg. of periapsis
246.2033°
True anomaly
113.91415°
Mean anomaly
112.3922°
Eccentric anomaly
113.15424°
Mean motion
3.49606 °/min
Orbital period
102.97 mins
BSTAR
0.000051539
Loading maneuver chart data...
Computing Atmospheric mass density...
Loading historical data...
Loading historical data...
Loading historical data...
Loading historical data...
Loading historical data...
Loading historical data...
Loading historical data...

Documentation

Showing up to 5 results
|